Regional Weather Roundup
Issued by NWS

Home | Current Version | Previous Version | Graphics & Text | Print | Product List | Glossary On
Versions: 1 2 3 4 5 6 7 8 9 10 11 12 13 14 15 16 17 18 19 20 21 22 23 24 25 26 27 28 29 30 31 32 33 34 35 36 37 38 39 40 41 42 43 44 45 46 47 48 49 50
000
ASUS43 KMKX 271311
RWRWI

WISCONSIN REGIONAL WEATHER ROUNDUP
NATIONAL WEATHER SERVICE MILWAUKEE/SULLIVAN WI
800 AM CDT SAT AUG 27 2016

NOTE: "FAIR" INDICATES FEW OR NO CLOUDS BELOW 12,000 FEET WITH NO
SIGNIFICANT WEATHER AND/OR OBSTRUCTIONS TO VISIBILITY.

WIZ001-002-006>008-014>016-023>028-271400-
NORTHWEST WISCONSIN

CITY           SKY/WX    TMP DP  RH WIND       PRES   REMARKS
SUPERIOR ARPT  CLOUDY    57  56  99 CALM      30.10S
ASHLAND        CLOUDY    57  55  93 CALM      30.12F
HAYWARD        PTSUNNY   60  56  86 CALM      30.12S
SIREN          CLOUDY    60  55  83 SE5       30.10R
CUMBERLAND     CLOUDY    57  54  88 SE5       30.11S
RICE LAKE      CLOUDY    60  56  88 CALM      30.13R
CHETEK         NOT AVBL
LADYSMITH      CLOUDY    59  56  91 E3        30.14R
EAU CLAIRE     MOSUNNY   63  58  83 SE8       30.09S
MENOMONIE      CLOUDY    62  59  91 E7        30.10R
NEW RICHMOND   CLOUDY    60  58  96 E5        30.10S
OSCEOLA        CLOUDY    61  61 100 E3        30.12S
$$

WIZ003>005-009-010-017-018-271400-
NORTH CENTRAL WISCONSIN

CITY           SKY/WX    TMP DP  RH WIND       PRES   REMARKS
MANITOWISH WTR NOT AVBL
ARBOR VITAE    CLOUDY    59  55  87 SE6       30.15S
WOODRUFF       CLOUDY    59  55  87 SE6       30.15S
RHINELANDER    CLOUDY    59  57  93 CALM      30.16R
EAGLE RIVER    MOSUNNY   57  56  99 CALM      30.15S
LAND O LAKES   CLOUDY    57  55  92 CALM      30.16F
PHILLIPS       CLOUDY    56  55  95 E3        30.12F
TOMAHAWK       CLOUDY    57  55  91 SE3       30.15R
MEDFORD        CLOUDY    58  58 100 SE8       30.12F
MERRILL        CLOUDY    57  57 100 CALM      30.15R
$$

WIZ029-030-035-036-043>047-271400-
CENTRAL WISCONSIN

CITY           SKY/WX    TMP DP  RH WIND       PRES   REMARKS
WAUSAU         PTSUNNY   59  58  96 E8        30.13R
MOSINEE        PTSUNNY   57  57 100 E6        30.14S
MARSHFIELD     CLOUDY    60  57  89 E5        30.12R
STEVENS POINT  CLOUDY    58  57  96 E5        30.13S
WAUPACA        RAIN      62  62  98 E6        30.13F
WAUTOMA        LGT RAIN  61  61 100 E5        30.13S
WISC RAPIDS    CLOUDY    61  59  93 E6        30.13R
CAMP DOUGLAS   LGT RAIN  61  59  94 E7        30.11R
$$

WIZ011>013-019>022-031-037>040-048>050-271400-
NORTHEAST WISCONSIN

CITY           SKY/WX    TMP DP  RH WIND       PRES   REMARKS
ANTIGO         CLOUDY    57  57  98 CALM      30.16R
SHAWANO        CLOUDY    63  60  91 SE3       30.14S
OCONTO         NOT AVBL
STURGEON BAY   LGT RAIN  63  60  90 SE3       30.15S
GREEN BAY      RAIN      63  62  97 CALM      30.14R
MANITOWOC      RAIN      61  58  90 SE5       30.16R
APPLETON       LGT RAIN  63  61  94 E6        30.14R
CLINTONVILLE   RAIN      59  59 100 E3        30.14S
OSHKOSH        LGT RAIN  62  59  90 E5        30.13R FOG
$$

WIZ032>034-041-042-053>061-271400-
SOUTHWEST WISCONSIN

CITY           SKY/WX    TMP DP  RH WIND       PRES   REMARKS
LA CROSSE      CLOUDY    64  61  90 E6        30.07F
SPARTA         DRIZZLE   60  59  97 E5        30.10S
VIROQUA        CLOUDY    61  61 100 E10       30.08S
BOSCOBEL       CLOUDY    64  62  93 NE6       30.07R
PRAIRIE DU CHI CLOUDY    63  61  96 E5        30.05R
PLATTEVILLE    CLOUDY    63  63 100 E12       30.06S
$$

WIZ056-057-062-063-064-067-068-271400-
SOUTH CENTRAL WISCONSIN

CITY           SKY/WX    TMP DP  RH WIND       PRES   REMARKS
REEDSBURG      NOT AVBL
BARABOO/DELLS  RAIN      61  59  94 E10       30.10S
LONE ROCK      CLOUDY    64  61  90 E9        30.08F
MINERAL POINT  CLOUDY    63  63 100 E12       30.07S FOG
MADISON        CLOUDY    62  60  93 E10       30.09S
MIDDLETON      CLOUDY    63  63 100 CALM      30.10S
WATERTOWN      CLOUDY    62  62 100 E7        30.10S
MONROE         CLOUDY    63  61  94 E7        30.08S FOG
JANESVILLE     CLOUDY    64  64 100 E6        30.08R
$$

WIZ051-052-058>065-066-070>072-271400-
SOUTHEAST WISCONSIN

CITY           SKY/WX    TMP DP  RH WIND       PRES   REMARKS
MILWAUKEE      CLOUDY    64  61  90 NE10      30.11S
WAUKESHA       DRIZZLE   61  59  94 E9        30.12S
MILWAUKEE/TIMM CLOUDY    63  57  82 NE6       30.12S
RACINE         LGT RAIN  68  66  93 NE7       30.11F
BURLINGTON     CLOUDY    63  62  96 NE3       30.10S
KENOSHA        LGT RAIN  69  67  93 NE6       30.08F
FOND DU LAC    RAIN      62  61  96 E7        30.13F
SHEBOYGAN      LGT RAIN  61  59  93 E7        30.14R
WEST BEND      DRIZZLE   61  59  94 E6        30.12S
JUNEAU         LGT RAIN  60  59  96 NE7       30.13R
$$

LSZ147-162-271400-
LAKE SUPERIOR

STATION/POSITION TIME  TEMP    WIND        PRES    WAVE
                       AIR SEA DIR/SP/G            HT/PER
                 (UTC) (F)     (DEG/KT/KT) (MB)    (FT/S)
W MID LAKE BUOY  1250   66 67  150/  4/  6 1019.7S   1
DEVILS ISLAND    1200   63     150/  4/  5 1019.7F
PORT WING        1200   58     120/  2/  4 1019.6S
SAXON HARBOR     1240   60     180/  4/  7 1019.3F
$$

LMZ867-665-643>646-271400-
LAKE MICHIGAN

STATION/POSITION TIME  TEMP    WIND        PRES    WAVE
                       AIR SEA DIR/SP/G            HT/PER
                 (UTC) (F)     (DEG/KT/KT) (MB)    (FT/S)
CHAMBERS ISLAND  1200   62        CALM     1020.7S
S GREEN BAY BUOY 1200   66 71   70/ 10/ 12 1019.7
N MID LAKE BUOY  1250   67 70  140/ 12/ 14 1020.1F   1/ 2
NORTHPORT PIER   1100   62     270/  2/  3 1021.0S
SISTER BAY       1207   63        CALM       N/A
KEWAUNEE LAKESHO 1200   60      20/  2/  4 1019.7F
SHEBOYGAN LAKESH 1300   61      80/ 11/ 11 1020.3R
PORT WASHINGTON  1200   62      40/  6/  9 1021.0R
ATWATER BUOY     1300   62      50/ 14/ 16   N/A
MILWAUKEE LAKESH 1210   61      30/ 14/ 16   N/A
S MID LAKE BUOY  1250   71 74  160/ 16/ 17 1019.0R   2/ 4
KENOSHA   LAKESH 1300   68     130/  4/  5 1017.9F
$$

TC  - TEMPERATURE IN CELSIUS
VSB - VISIBILITY IN STATUTE MILES
WCI - WIND CHILL INDEX
HX  - HEAT INDEX





USA.gov is the U.S. government's official web portal to all federal, state and local government web resources and services.